EW7590 Weather Reports


time (UTC)temp
C
wind
direction
speed
KPH
gust
KPH
rain 1hr
cm
rain 24hr
cm
rain mn
cm
humidity
%
barometer
mb
20220811230023 25 115 1.6 6.4 0.00 0.00 0.00 69 1010.6
20220811225545 25 135 1.6 6.4 0.00 0.00 0.00 69 1010.5
20220811225003 25 116 1.6 12.9 0.00 0.00 0.00 69 1010.5
20220811224544 25 69 3.2 14.5 0.00 0.00 0.00 68 1010.4
20220811224002 25 70 4.8 14.5 0.00 0.00 0.00 68 1010.4
20220811223524 25 60 4.8 11.3 0.00 0.00 0.00 67 1010.3
20220811223002 26 57 3.2 8.0 0.00 0.00 0.00 65 1010.2
20220811222544 26 86 1.6 3.2 0.00 0.00 0.00 58 1010.3
20220811222023 26 100 0.0 4.8 0.00 0.00 0.00 58 1010.3
20220811221545 26 88 1.6 4.8 0.00 0.00 0.00 58 1010.3
20220811221024 26 171 1.6 4.8 0.00 0.00 0.00 58 1010.4
20220811220523 26 163 0.0 3.2 0.00 0.00 0.00 55 1010.2
20220811220003 26 154 1.6 3.2 0.00 0.00 0.00 56 1010.3
20220811215523 26 229 0.0 3.2 0.00 0.00 0.00 56 1010.4
20220811215003 26 193 1.6 4.8 0.00 0.00 0.00 56 1010.3
20220811213545 26 170 3.2 6.4 0.00 0.00 0.00 56 1010.5
20220811210002 26 176 1.6 8.0 0.00 0.00 0.00 54 1010.6
20220811204502 26 169 4.8 9.7 0.00 0.00 0.00 56 1010.6
20220811204002 26 166 3.2 9.7 0.00 0.00 0.00 54 1010.7
20220811203524 26 245 1.6 6.4 0.00 0.00 0.00 56 1010.7
20220811203002 26 190 1.6 8.0 0.00 0.00 0.00 57 1010.8
20220811202544 26 165 1.6 8.0 0.00 0.00 0.00 56 1010.9
20220811202003 26 176 3.2 8.0 0.00 0.00 0.00 57 1010.9
20220811201502 26 209 1.6 8.0 0.00 0.00 0.00 57 1010.9
20220811201044 26 197 1.6 4.8 0.00 0.00 0.00 56 1010.9
20220811200502 26 183 3.2 4.8 0.00 0.00 0.00 56 1010.9
20220811200023 26 198 1.6 6.4 0.00 0.00 0.00 56 1010.8
20220811195048 26 165 3.2 8.0 0.00 0.00 0.00 55 1010.9
20220811194524 26 200 1.6 6.4 0.00 0.00 0.00 56 1010.8
20220811194002 26 162 1.6 6.4 0.00 0.00 0.00 54 1010.9
20220811193523 26 189 3.2 4.8 0.00 0.00 0.00 55 1010.9
20220811193003 26 196 1.6 4.8 0.00 0.00 0.00 54 1010.9
20220811192502 26 179 3.2 4.8 0.00 0.00 0.00 55 1011.0
20220811192003 27 156 1.6 4.8 0.00 0.00 0.00 55 1011.0
20220811191045 27 155 1.6 6.4 0.00 0.00 0.00 53 1011.1
20220811190502 26 301 3.2 6.4 0.00 0.00 0.00 56 1011.1
20220811190044 26 164 0.0 6.4 0.00 0.00 0.00 56 1011.1
20220811185502 26 156 1.6 6.4 0.00 0.00 0.00 56 1011.1
20220811185002 26 164 1.6 8.0 0.00 0.00 0.00 55 1011.2
20220811184502 26 175 4.8 8.0 0.00 0.00 0.00 57 1011.1
20220811184024 26 126 0.0 8.0 0.00 0.00 0.00 56 1011.1
20220811183526 26 191 3.2 6.4 0.00 0.00 0.00 56 1011.3
20220811183003 26 183 4.8 6.4 0.00 0.00 0.00 57 1011.4
20220811182545 26 184 4.8 6.4 0.00 0.00 0.00 58 1011.4
20220811182049 26 149 3.2 8.0 0.00 0.00 0.00 56 1011.3
20220811181524 26 94 1.6 8.0 0.00 0.00 0.00 55 1011.3
20220811181002 26 161 1.6 9.7 0.00 0.00 0.00 56 1011.4
20220811180545 26 254 3.2 9.7 0.00 0.00 0.00 54 1011.5
20220811180024 26 203 1.6 4.8 0.00 0.00 0.00 60 1011.4
20220811175028 26 61 3.2 4.8 0.00 0.00 0.00 61 1011.6
20220811174523 26 122 1.6 9.7 0.00 0.00 0.00 62 1011.8
20220811174044 26 242 0.0 9.7 0.00 0.00 0.00 61 1011.9
20220811173503 25 166 3.2 8.0 0.00 0.00 0.00 60 1012.1
20220811173002 25 208 3.2 8.0 0.00 0.00 0.00 59 1012.1
20220811172024 25 186 1.6 6.4 0.00 0.00 0.00 64 1012.2
20220811171523 25 275 3.2 6.4 0.00 0.00 0.00 63 1012.3
20220811171003 25 339 1.6 4.8 0.00 0.00 0.00 63 1012.3
20220811170523 25 231 1.6 4.8 0.00 0.00 0.00 65 1012.3
20220811170007 25 197 1.6 6.4 0.00 0.00 0.00 66 1012.4
20220811165503 25 187 0.0 6.4 0.00 0.00 0.00 67 1012.4
20220811165002 25 188 1.6 4.8 0.00 0.00 0.00 68 1012.3
20220811164502 25 200 0.0 4.8 0.00 0.00 0.00 68 1012.6
20220811163502 24 89 1.6 6.4 0.00 0.00 0.00 71 1012.5
20220811163003 24 95 1.6 8.0 0.00 0.00 0.00 71 1012.5
20220811162544 24 54 6.4 8.0 0.00 0.00 0.00 70 1012.5
20220811162002 24 46 0.0 6.4 0.00 0.00 0.00 71 1012.6
20220811161502 24 58 3.2 6.4 0.00 0.00 0.00 72 1012.8
20220811161002 24 67 3.2 6.4 0.00 0.00 0.00 72 1012.7
20220811160547 24 85 1.6 6.4 0.00 0.00 0.00 72 1012.7
20220811160045 23 111 1.6 6.4 0.00 0.00 0.00 73 1012.7
20220811155502 23 130 1.6 3.2 0.00 0.00 0.00 72 1012.9
20220811155002 23 126 0.0 4.8 0.00 0.00 0.00 72 1012.7
20220811154503 23 70 1.6 4.8 0.00 0.00 0.00 72 1012.7
20220811154044 24 86 1.6 3.2 0.00 0.00 0.00 71 1012.8
20220811153502 24 102 1.6 4.8 0.00 0.00 0.00 72 1012.9
20220811153024 24 160 3.2 4.8 0.00 0.00 0.00 72 1012.9
20220811152523 24 175 1.6 4.8 0.00 0.00 0.00 71 1012.8
20220811152002 24 102 1.6 4.8 0.00 0.00 0.00 74 1012.8
20220811151503 23 106 1.6 6.4 0.00 0.00 0.00 72 1012.7
20220811151024 23 143 3.2 6.4 0.00 0.00 0.00 72 1012.8
20220811150045 23 88 1.6 6.4 0.00 0.00 0.00 73 1012.9
20220811145503 23 115 1.6 4.8 0.00 0.00 0.00 74 1012.9
20220811145044 23 87 1.6 4.8 0.00 0.00 0.00 74 1012.9
20220811144523 23 181 0.0 4.8 0.00 0.00 0.00 74 1013.0
20220811144002 23 142 1.6 4.8 0.00 0.00 0.00 74 1013.0
20220811143024 23 76 1.6 3.2 0.00 0.00 0.00 75 1013.1
20220811142503 23 111 1.6 3.2 0.00 0.00 0.00 75 1013.2
20220811142003 23 33 0.0 3.2 0.00 0.00 0.00 75 1013.2
20220811141523 23 129 1.6 3.2 0.00 0.00 0.00 74 1013.2
20220811140502 22 137 0.0 3.2 0.00 0.00 0.00 76 1013.2
20220811140024 22 137 0.0 3.2 0.00 0.00 0.00 77 1013.3
20220811135503 22 152 0.0 1.6 0.00 0.00 0.00 77 1013.3
20220811135002 22 194 0.0 1.6 0.00 0.00 0.00 78 1013.2
20220811134503 22 263 0.0 1.6 0.00 0.00 0.00 77 1013.2
20220811134002 22 180 0.0 3.2 0.00 0.00 0.00 78 1013.2
20220811133544 22 179 0.0 3.2 0.00 0.00 0.00 78 1013.4
20220811133003 22 315 1.6 4.8 0.00 0.00 0.00 78 1013.3
20220811132545 22 331 1.6 4.8 0.00 0.00 0.00 78 1013.4
20220811132044 22 274 0.0 3.2 0.00 0.00 0.00 78 1013.4
20220811131502 22 252 1.6 6.4 0.00 0.00 0.00 78 1013.5
20220811131003 22 221 0.0 6.4 0.00 0.00 0.00 78 1013.5
20220811130502 22 71 0.0 3.2 0.00 0.00 0.00 79 1013.4
20220811130003 22 72 0.0 4.8 0.00 0.00 0.00 80 1013.3
20220811125502 21 35 1.6 4.8 0.00 0.00 0.00 80 1013.4
20220811125002 21 69 1.6 3.2 0.00 0.00 0.00 82 1013.4
20220811124524 21 85 0.0 3.2 0.00 0.00 0.00 82 1013.6
20220811124002 21 124 1.6 3.2 0.00 0.00 0.00 82 1013.6
20220811123502 21 171 0.0 3.2 0.00 0.00 0.00 82 1013.6
20220811123002 21 149 1.6 3.2 0.00 0.00 0.00 82 1013.6
20220811122502 21 75 0.0 3.2 0.00 0.00 0.00 83 1013.6
20220811122002 21 32 0.0 1.6 0.00 0.00 0.00 83 1013.5
20220811121524 21 33 0.0 3.2 0.00 0.00 0.00 83 1013.4
20220811121045 20 33 0.0 4.8 0.00 0.00 0.00 84 1013.5
20220811120502 20 33 3.2 4.8 0.00 0.00 0.00 83 1013.5
20220811120002 20 54 1.6 4.8 0.00 0.00 0.00 84 1013.6
20220811115503 20 91 0.0 1.6 0.00 0.00 0.00 84 1013.7
20220811115023 20 98 0.0 3.2 0.00 0.00 0.00 85 1013.7
20220811114544 20 98 0.0 4.8 0.00 0.00 0.00 85 1013.7
20220811114002 20 85 3.2 4.8 0.00 0.00 0.00 85 1013.7
20220811113503 20 28 0.0 3.2 0.00 0.00 0.00 86 1013.6
20220811113023 20 28 0.0 1.6 0.00 0.00 0.00 85 1013.7
20220811112502 20 28 0.0 1.6 0.00 0.00 0.00 86 1013.8
20220811112002 20 28 0.0 1.6 0.00 0.00 0.00 86 1013.9
20220811111502 20 28 0.0 0.0 0.00 0.00 0.00 86 1013.9
20220811110523 19 28 0.0 0.0 0.00 0.00 0.00 87 1013.9
20220811110045 19 28 0.0 0.0 0.00 0.00 0.00 87 1013.7
20220811105524 19 28 0.0 0.0 0.00 0.00 0.00 87 1013.7
20220811105002 19 28 0.0 1.6 0.00 0.00 0.00 87 1013.8
20220811104003 19 28 0.0 1.6 0.00 0.00 0.00 87 1013.6
20220811103524 19 28 0.0 0.0 0.00 0.00 0.00 87 1013.7
20220811103024 19 28 0.0 0.0 0.00 0.00 0.00 87 1013.6
20220811102502 19 28 0.0 1.6 0.00 0.00 0.00 88 1013.6
20220811102002 19 28 0.0 1.6 0.00 0.00 0.00 87 1013.5
20220811101524 18 24 0.0 0.0 0.00 0.00 0.00 87 1013.6
20220811100545 18 24 0.0 0.0 0.00 0.00 0.00 87 1013.5
20220811100023 18 24 0.0 1.6 0.00 0.00 0.00 87 1013.6
20220811095524 18 24 0.0 1.6 0.00 0.00 0.00 87 1013.4
20220811095002 18 24 1.6 1.6 0.00 0.00 0.00 87 1013.5
20220811094505 18 24 0.0 1.6 0.00 0.00 0.00 87 1013.7
20220811094003 18 24 0.0 1.6 0.00 0.00 0.00 87 1013.5
20220811093502 18 24 0.0 1.6 0.00 0.00 0.00 87 1013.5
20220811093044 18 24 0.0 0.0 0.00 0.00 0.00 87 1013.6
20220811092502 18 24 0.0 0.0 0.00 0.00 0.00 87 1013.6
20220811092024 18 24 0.0 0.0 0.00 0.00 0.00 87 1013.8
20220811091523 18 24 0.0 0.0 0.00 0.00 0.00 87 1013.9
20220811090002 18 24 0.0 1.6 0.00 0.00 0.00 87 1013.9
20220811085503 18 24 0.0 1.6 0.00 0.00 0.00 86 1014.0
20220811085023 18 24 0.0 1.6 0.00 0.00 0.00 86 1014.1
20220811084503 18 24 0.0 1.6 0.00 0.00 0.00 86 1014.1
20220811083502 18 24 0.0 0.0 0.00 0.00 0.00 86 1014.1
20220811082503 18 24 0.0 1.6 0.00 0.00 0.00 86 1014.3
20220811082045 18 24 1.6 1.6 0.00 0.00 0.00 86 1014.3
20220811081502 18 24 0.0 1.6 0.00 0.00 0.00 86 1014.3
20220811081002 18 24 0.0 1.6 0.00 0.00 0.00 86 1014.3
20220811080524 18 33 0.0 1.6 0.00 0.00 0.00 86 1014.4
20220811080023 18 34 0.0 1.6 0.00 0.00 0.00 86 1014.4
20220811075002 18 60 1.6 3.2 0.00 0.00 0.00 86 1014.6
20220811074048 18 359 0.0 3.2 0.00 0.00 0.00 86 1014.8
20220811073502 18 359 0.0 3.2 0.00 0.00 0.00 86 1014.8
20220811073023 18 35 0.0 1.6 0.00 0.00 0.00 86 1014.8
20220811072502 18 35 0.0 1.6 0.00 0.00 0.00 86 1015.0
20220811072003 18 35 0.0 1.6 0.00 0.00 0.00 86 1015.1
20220811071523 18 35 0.0 1.6 0.00 0.00 0.00 86 1015.1
20220811070504 18 35 0.0 1.6 0.00 0.00 0.00 86 1015.3
20220811070045 18 35 0.0 3.2 0.00 0.00 0.00 85 1015.3
20220811065502 18 35 1.6 3.2 0.00 0.00 0.00 85 1015.3
20220811065045 18 34 0.0 3.2 0.00 0.00 0.00 86 1015.3
20220811064503 18 35 1.6 3.2 0.00 0.00 0.00 85 1015.3
20220811064023 18 35 0.0 1.6 0.00 0.00 0.00 85 1015.3
20220811063503 18 35 0.0 1.6 0.00 0.00 0.00 85 1015.4
20220811063023 18 35 0.0 1.6 0.00 0.00 0.00 86 1015.3
20220811062502 18 35 0.0 3.2 0.00 0.00 0.00 85 1015.4
20220811062045 18 35 1.6 3.2 0.00 0.00 0.00 85 1015.4
20220811061502 18 9 0.0 3.2 0.00 0.00 0.00 85 1015.4
20220811061002 18 0 1.6 3.2 0.00 0.00 0.00 85 1015.5
20220811060503 18 344 0.0 3.2 0.00 0.00 0.00 85 1015.5
20220811060002 18 10 1.6 3.2 0.00 0.00 0.00 86 1015.6
20220811055023 18 22 0.0 0.0 0.00 0.00 0.00 86 1015.7
20220811054545 18 22 0.0 0.0 0.00 0.00 0.00 86 1015.8
20220811054045 18 22 0.0 3.2 0.00 0.00 0.00 86 1015.9
20220811053545 18 22 0.0 3.2 0.00 0.00 0.00 86 1015.9
20220811052503 18 22 0.0 0.0 0.00 0.00 0.00 86 1016.1
20220811052023 18 22 0.0 1.6 0.00 0.00 0.00 86 1016.1
20220811051503 18 27 0.0 1.6 0.00 0.00 0.00 86 1016.2
20220811051024 18 42 0.0 0.0 0.00 0.00 0.00 86 1016.2
20220811050502 18 42 0.0 1.6 0.00 0.00 0.00 86 1016.2
20220811050003 18 42 0.0 3.2 0.00 0.00 0.00 86 1016.2
20220811045502 18 42 0.0 3.2 0.00 0.00 0.00 86 1016.3
20220811045003 18 21 1.6 3.2 0.00 0.00 0.00 86 1016.2
20220811044553 18 21 0.0 1.6 0.00 0.00 0.00 86 1016.3
20220811044023 18 21 0.0 1.6 0.00 0.00 0.00 86 1016.3
20220811043545 18 20 0.0 1.6 0.00 0.00 0.00 86 1016.4
20220811043024 18 21 0.0 3.2 0.00 0.00 0.00 86 1016.4
20220811042024 18 21 0.0 0.0 0.00 0.00 0.00 85 1016.4
20220811041503 18 21 0.0 0.0 0.00 0.00 0.00 85 1016.3
20220811041044 18 21 0.0 1.6 0.00 0.00 0.00 85 1016.2
20220811040502 18 20 0.0 1.6 0.00 0.00 0.00 85 1016.4
20220811040024 18 72 1.6 1.6 0.00 0.00 0.00 84 1016.6
20220811034545 18 76 0.0 3.2 0.00 0.00 0.00 84 1016.5
20220811034045 18 71 1.6 3.2 0.00 0.00 0.00 84 1016.4
20220811033524 18 95 1.6 3.2 0.00 0.00 0.00 84 1016.4
20220811033002 18 142 0.0 1.6 0.00 0.00 0.00 84 1016.5
20220811032503 18 142 0.0 1.6 0.00 0.00 0.00 84 1016.5
20220811032024 18 142 0.0 3.2 0.00 0.00 0.00 84 1016.4
20220811031523 18 105 1.6 3.2 0.00 0.00 0.00 84 1016.4
20220811031044 18 137 0.0 4.8 0.00 0.00 0.00 84 1016.4
20220811030002 18 116 0.0 3.2 0.00 0.00 0.00 84 1016.5
20220811025503 18 349 0.0 3.2 0.00 0.00 0.00 84 1016.6
20220811025023 18 304 1.6 3.2 0.00 0.00 0.00 83 1016.6
20220811024502 18 79 0.0 4.8 0.00 0.00 0.00 83 1016.6
20220811024003 18 78 0.0 4.8 0.00 0.00 0.00 83 1016.5
20220811022503 18 64 0.0 4.8 0.00 0.00 0.00 82 1016.6
20220811022024 18 89 1.6 4.8 0.00 0.00 0.00 82 1016.7
20220811021502 19 64 1.6 4.8 0.00 0.00 0.00 81 1016.8
20220811021003 19 71 0.0 3.2 0.00 0.00 0.00 81 1016.8
20220811020523 19 78 0.0 6.4 0.00 0.00 0.00 81 1016.9
20220811020002 19 76 1.6 6.4 0.00 0.00 0.00 81 1016.8
20220811015503 19 62 3.2 4.8 0.00 0.00 0.00 80 1016.8
20220811015023 19 71 0.0 4.8 0.00 0.00 0.00 80 1016.9
20220811014503 19 46 1.6 4.8 0.00 0.00 0.00 80 1016.9
20220811014003 19 73 1.6 3.2 0.00 0.00 0.00 80 1017.0
20220811013504 19 73 1.6 4.8 0.00 0.00 0.00 80 1017.0
20220811013002 19 62 3.2 4.8 0.00 0.00 0.00 79 1017.0
20220811012503 19 57 3.2 6.4 0.00 0.00 0.00 79 1017.0
20220811012003 19 59 3.2 6.4 0.00 0.00 0.00 78 1016.9
20220811011502 19 81 1.6 3.2 0.00 0.00 0.00 78 1016.8
20220811011045 19 135 0.0 4.8 0.00 0.00 0.00 78 1016.8
20220811010523 20 82 1.6 4.8 0.00 0.00 0.00 78 1016.9
20220811010023 20 143 0.0 3.2 0.00 0.00 0.00 77 1016.9
20220811005504 20 133 0.0 3.2 0.00 0.00 0.00 77 1016.9
20220811005045 20 81 0.0 3.2 0.00 0.00 0.00 76 1016.8
20220811004524 20 64 0.0 8.0 0.00 0.00 0.00 76 1016.8
20220811004002 20 66 1.6 9.7 0.00 0.00 0.00 76 1016.7
20220811003502 20 56 3.2 9.7 0.00 0.00 0.00 76 1016.6
20220811003002 20 55 3.2 6.4 0.00 0.00 0.00 75 1016.5
20220811002502 20 60 3.2 6.4 0.00 0.00 0.00 75 1016.6
20220811002003 20 95 1.6 6.4 0.00 0.00 0.00 74 1016.5
20220811001502 20 51 1.6 6.4 0.00 0.00 0.00 74 1016.5
20220811001003 20 62 3.2 6.4 0.00 0.00 0.00 74 1016.4
20220811000503 20 76 3.2 6.4 0.00 0.00 0.00 74 1016.3
20220811000023 20 61 0.0 6.4 0.00 0.00 0.00 74 1016.2
20220810235524 20 55 3.2 6.4 0.00 0.00 0.00 74 1016.2
20220810235003 20 66 1.6 4.8 0.00 0.00 0.00 74 1016.3
20220810234523 20 52 1.6 9.7 0.00 0.00 0.00 74 1016.3
20220810233524 20 77 3.2 6.4 0.00 0.00 0.00 74 1016.3
20220810233024 20 64 1.6 8.0 0.00 0.00 0.00 74 1016.2
20220810232502 20 52 3.2 9.7 0.00 0.00 0.00 74 1016.3
20220810231502 21 59 3.2 8.0 0.00 0.00 0.00 74 1016.3
20220810231023 21 57 4.8 8.0 0.00 0.00 0.00 73 1016.3
20220810230545 21 64 3.2 8.0 0.00 0.00 0.00 74 1016.3